Location: Hartman Creek State Park
(44.3257°N, 89.2134°W)
Time: 15:16:21
(UTC-05:00)

Cosmos 2263 Rocket - Visible Passes

Search period start: 01 August 2015 00:00
Search period end: 11 August 2015 00:00
Orbit: 823 x 849 km, 71.0° (Epoch: 31 July)

Date Brightness Start Highest point End Pass type
(mag) Time Alt. Az. Time Alt. Az. Time Alt. Az.
01 Aug 4.9 00:36:55 10° WNW 00:39:49 14° NW 00:42:31 10° N visible
01 Aug 3.6 20:51:19 10° SE 20:54:37 17° E 20:58:10 10° ENE visible
01 Aug 2.4 22:32:24 10° SSW 22:37:58 73° WNW 22:43:37 10° NNE visible
02 Aug 4.9 00:19:55 10° WNW 00:23:04 15° NW 00:26:02 10° N visible
02 Aug 2.3 22:15:44 10° SSW 22:21:18 79° WNW 22:26:58 10° NNE visible
03 Aug 4.9 00:02:55 10° W 00:06:18 16° NW 00:09:31 10° N visible
03 Aug 2.2 21:59:03 10° SSW 22:04:38 84° WNW 22:10:18 10° NNE visible
03 Aug 4.9 23:45:58 10° W 23:49:33 17° NW 23:53:00 10° N visible
04 Aug 5.4 05:08:42 10° NNE 05:11:08 13° NE 05:13:47 10° ENE visible
04 Aug 2.2 21:42:23 10° SSW 21:47:58 89° ESE 21:53:38 10° NNE visible
04 Aug 4.9 23:29:01 10° W 23:32:48 18° NW 23:36:27 10° N visible
05 Aug 5.5 04:52:16 10° NNE 04:54:22 12° NE 04:56:41 10° ENE visible
05 Aug 2.1 21:25:44 10° SSW 21:31:18 83° ESE 21:36:58 10° NNE visible
05 Aug 4.8 23:12:06 10° W 23:16:03 19° NW 23:19:54 10° N visible
06 Aug 5.6 04:35:54 10° NNE 04:37:35 11° NE 04:39:31 10° ENE visible
06 Aug 2.1 21:09:05 10° SSW 21:14:38 77° ESE 21:20:18 10° NNE visible
06 Aug 4.8 22:55:12 10° W 22:59:19 20° NW 23:03:20 10° N visible
07 Aug 5.7 04:19:39 10° NNE 04:20:49 11° NE 04:22:14 10° NE visible
07 Aug 2.1 20:52:27 10° SSW 20:57:59 72° ESE 21:03:37 10° NNE visible
07 Aug 4.7 22:38:18 10° W 22:42:35 21° NW 22:46:45 10° N visible
08 Aug 5.8 04:03:54 10° NNE 04:04:03 10° NE 04:04:26 10° NE visible
08 Aug 2.2 20:35:49 10° SSW 20:41:20 66° ESE 20:46:56 10° NNE visible
08 Aug 4.7 22:21:26 10° W 22:25:50 23° NW 22:30:11 10° N visible
09 Aug 4.6 22:04:34 10° WSW 22:09:06 24° NW 22:13:35 10° N visible
10 Aug 3.9 05:10:56 10° NNW 05:16:14 39° NE 05:21:35 10° SE visible
10 Aug 4.6 21:47:42 10° WSW 21:52:22 26° NW 21:56:59 10° N visible
